Time,TemperatureF,DewpointF,PressureIn,WindDirection,WindDirectionDegrees,WindSpeedMPH,WindSpeedGustMPH,Humidity,HourlyPrecipIn,Conditions,Clouds,dailyrainin,SoftwareType,DateUTC
2013-09-17 00:01:00,58.5,57.9,29.81,WSW,247,0.0,-999.0,98,-99.99,,,0.00,Acu-Link.com,2013-09-17 07:01:00,
2013-09-17 00:16:00,58.5,57.9,29.80,East,90,0.0,-999.0,98,-99.99,,,0.00,Acu-Link.com,2013-09-17 07:16:00,
2013-09-17 00:31:00,58.8,58.2,29.81,SW,225,0.0,-999.0,98,-99.99,,,0.00,Acu-Link.com,2013-09-17 07:31:00,
2013-09-17 00:47:00,59.4,58.8,29.81,NW,315,2.7,-999.0,98,-99.99,,,0.00,Acu-Link.com,2013-09-17 07:47:00,
2013-09-17 01:02:00,59.4,58.8,29.82,West,270,3.2,-999.0,98,-99.99,,,0.00,Acu-Link.com,2013-09-17 08:02:00,
2013-09-17 01:17:00,59.5,58.9,29.82,NE,45,1.7,-999.0,98,-99.99,,,0.00,Acu-Link.com,2013-09-17 08:17:00,
2013-09-17 01:32:00,59.7,59.1,29.81,NNE,22,1.7,-999.0,98,-99.99,,,0.00,Acu-Link.com,2013-09-17 08:32:00,
2013-09-17 01:48:00,59.7,59.1,29.80,NE,45,2.2,-999.0,98,-99.99,,,0.00,Acu-Link.com,2013-09-17 08:48:00,
2013-09-17 02:03:00,59.7,59.1,29.79,NE,45,0.0,-999.0,98,-99.99,,,0.00,Acu-Link.com,2013-09-17 09:03:00,
2013-09-17 02:18:00,59.7,59.1,29.80,NNW,337,0.0,-999.0,98,-99.99,,,0.00,Acu-Link.com,2013-09-17 09:18:00,
2013-09-17 02:33:00,59.7,59.1,29.78,West,270,0.0,-999.0,98,-99.99,,,0.00,Acu-Link.com,2013-09-17 09:33:00,
2013-09-17 02:49:00,60.1,59.0,29.79,North,0,0.0,-999.0,96,-99.99,,,0.00,Acu-Link.com,2013-09-17 09:49:00,
2013-09-17 03:04:00,60.1,59.0,29.79,ENE,67,0.0,-999.0,96,-99.99,,,0.00,Acu-Link.com,2013-09-17 10:04:00,
2013-09-17 03:19:00,59.9,58.8,29.80,SW,225,1.7,-999.0,96,-99.99,,,0.00,Acu-Link.com,2013-09-17 10:19:00,
2013-09-17 03:34:00,59.9,58.5,29.80,WNW,292,2.2,-999.0,95,-99.99,,,0.00,Acu-Link.com,2013-09-17 10:34:00,
2013-09-17 03:50:00,59.9,58.5,29.79,NE,45,0.0,-999.0,95,-99.99,,,0.00,Acu-Link.com,2013-09-17 10:50:00,
2013-09-17 04:05:00,59.7,59.1,29.79,NE,45,0.0,-999.0,98,-99.99,,,0.01,Acu-Link.com,2013-09-17 11:05:00,
2013-09-17 04:20:00,59.4,58.8,29.79,ESE,112,0.0,-999.0,98,-99.99,,,0.05,Acu-Link.com,2013-09-17 11:20:00,
2013-09-17 04:35:00,59.2,58.6,29.81,ESE,112,0.0,-999.0,98,-99.99,,,0.05,Acu-Link.com,2013-09-17 11:35:00,
2013-09-17 04:51:00,59.0,58.4,29.79,ENE,67,0.0,-999.0,98,-99.99,,,0.05,Acu-Link.com,2013-09-17 11:51:00,
2013-09-17 05:06:00,59.0,58.4,29.81,SSW,202,0.0,-999.0,98,-99.99,,,0.05,Acu-Link.com,2013-09-17 12:06:00,
2013-09-17 05:21:00,59.0,58.4,29.80,ESE,112,0.0,-999.0,98,-99.99,,,0.05,Acu-Link.com,2013-09-17 12:21:00,
2013-09-17 05:37:00,59.0,58.4,29.79,WSW,247,2.2,-999.0,98,-99.99,,,0.05,Acu-Link.com,2013-09-17 12:37:00,
2013-09-17 05:52:00,59.0,58.4,29.80,NNW,337,1.7,-999.0,98,-99.99,,,0.05,Acu-Link.com,2013-09-17 12:52:00,
2013-09-17 06:07:00,59.0,58.4,29.81,WNW,292,3.7,-999.0,98,-99.99,,,0.05,Acu-Link.com,2013-09-17 13:07:00,
2013-09-17 06:22:00,58.8,58.2,29.81,SW,225,1.1,-999.0,98,-99.99,,,0.05,Acu-Link.com,2013-09-17 13:22:00,
2013-09-17 06:38:00,58.8,58.2,29.80,NNW,337,2.2,-999.0,98,-99.99,,,0.05,Acu-Link.com,2013-09-17 13:38:00,
2013-09-17 06:53:00,58.8,58.2,29.80,West,270,6.8,-999.0,98,-99.99,,,0.05,Acu-Link.com,2013-09-17 13:53:00,
2013-09-17 07:08:00,58.3,57.7,29.81,NNE,22,4.7,-999.0,98,-99.99,,,0.05,Acu-Link.com,2013-09-17 14:08:00,
2013-09-17 07:24:00,57.7,57.1,29.81,NNW,337,5.8,-999.0,98,-99.99,,,0.06,Acu-Link.com,2013-09-17 14:24:00,
2013-09-17 07:39:00,57.2,56.6,29.82,NW,315,4.2,-999.0,98,-99.99,,,0.06,Acu-Link.com,2013-09-17 14:39:00,
2013-09-17 07:54:00,57.0,56.4,29.83,NNE,22,3.2,-999.0,98,-99.99,,,0.06,Acu-Link.com,2013-09-17 14:54:00,
2013-09-17 08:09:00,56.8,56.2,29.83,SW,225,1.7,-999.0,98,-99.99,,,0.06,Acu-Link.com,2013-09-17 15:09:00,
2013-09-17 08:24:00,57.0,56.4,29.84,WNW,292,3.2,-999.0,98,-99.99,,,0.06,Acu-Link.com,2013-09-17 15:24:00,
2013-09-17 08:39:00,57.0,56.4,29.85,NW,315,2.2,-999.0,98,-99.99,,,0.06,Acu-Link.com,2013-09-17 15:39:00,
2013-09-17 08:54:00,57.4,56.8,29.85,West,270,1.7,-999.0,98,-99.99,,,0.07,Acu-Link.com,2013-09-17 15:54:00,
2013-09-17 09:10:00,57.9,57.1,29.85,NNE,22,2.7,-999.0,97,-99.99,,,0.07,Acu-Link.com,2013-09-17 16:10:00,
2013-09-17 09:25:00,59.0,57.3,29.85,NW,315,2.7,-999.0,94,-99.99,,,0.07,Acu-Link.com,2013-09-17 16:25:00,
2013-09-17 09:40:00,60.4,58.4,29.85,WSW,247,2.7,-999.0,93,-99.99,,,0.07,Acu-Link.com,2013-09-17 16:40:00,
2013-09-17 09:55:00,61.0,58.4,29.85,WNW,292,0.0,-999.0,91,-99.99,,,0.07,Acu-Link.com,2013-09-17 16:55:00,
2013-09-17 10:11:00,61.2,58.5,29.86,WNW,292,2.2,-999.0,91,-99.99,,,0.07,Acu-Link.com,2013-09-17 17:11:00,
2013-09-17 10:26:00,61.9,58.3,29.86,SW,225,0.0,-999.0,88,-99.99,,,0.07,Acu-Link.com,2013-09-17 17:26:00,
2013-09-17 10:41:00,62.4,58.5,29.86,South,180,2.2,-999.0,87,-99.99,,,0.07,Acu-Link.com,2013-09-17 17:41:00,
2013-09-17 10:56:00,64.4,59.5,29.86,NE,45,0.0,-999.0,84,-99.99,,,0.07,Acu-Link.com,2013-09-17 17:56:00,
2013-09-17 11:12:00,65.3,58.3,29.86,SE,135,1.1,-999.0,78,-99.99,,,0.07,Acu-Link.com,2013-09-17 18:12:00,
2013-09-17 11:27:00,65.5,58.5,29.87,NE,45,2.7,-999.0,78,-99.99,,,0.07,Acu-Link.com,2013-09-17 18:27:00,
2013-09-17 11:42:00,68.2,58.8,29.87,NNE,22,4.7,-999.0,72,-99.99,,,0.07,Acu-Link.com,2013-09-17 18:42:00,
2013-09-17 11:57:00,67.1,58.9,29.87,SW,225,1.1,-999.0,75,-99.99,,,0.07,Acu-Link.com,2013-09-17 18:57:00,
2013-09-17 12:13:00,66.6,58.4,29.89,North,0,2.2,-999.0,75,-99.99,,,0.07,Acu-Link.com,2013-09-17 19:13:00,
2013-09-17 12:28:00,67.6,57.1,29.87,NNE,22,3.2,-999.0,69,-99.99,,,0.07,Acu-Link.com,2013-09-17 19:28:00,
2013-09-17 12:43:00,67.8,56.4,29.88,NW,315,3.7,-999.0,67,-99.99,,,0.07,Acu-Link.com,2013-09-17 19:43:00,
2013-09-17 12:58:00,67.6,57.5,29.87,West,270,3.7,-999.0,70,-99.99,,,0.07,Acu-Link.com,2013-09-17 19:58:00,
2013-09-17 13:13:00,70.2,57.4,29.87,North,0,2.7,-999.0,64,-99.99,,,0.07,Acu-Link.com,2013-09-17 20:13:00,
2013-09-17 13:28:00,69.6,56.9,29.87,SW,225,3.7,-999.0,64,-99.99,,,0.07,Acu-Link.com,2013-09-17 20:28:00,
2013-09-17 13:44:00,68.9,54.9,29.88,WSW,247,8.3,-999.0,61,-99.99,,,0.07,Acu-Link.com,2013-09-17 20:44:00,
2013-09-17 13:59:00,69.1,55.5,29.87,NW,315,3.2,-999.0,62,-99.99,,,0.07,Acu-Link.com,2013-09-17 20:59:00,
2013-09-17 14:14:00,69.3,55.3,29.88,South,180,2.7,-999.0,61,-99.99,,,0.07,Acu-Link.com,2013-09-17 21:14:00,
2013-09-17 14:30:00,70.7,57.0,29.88,West,270,6.3,-999.0,62,-99.99,,,0.07,Acu-Link.com,2013-09-17 21:30:00,
2013-09-17 14:45:00,67.5,55.7,29.88,WNW,292,3.2,-999.0,66,-99.99,,,0.07,Acu-Link.com,2013-09-17 21:45:00,
2013-09-17 15:00:00,69.3,56.6,29.89,SW,225,7.3,-999.0,64,-99.99,,,0.07,Acu-Link.com,2013-09-17 22:00:00,
2013-09-17 15:15:00,70.0,56.8,29.88,West,270,6.3,-999.0,63,-99.99,,,0.07,Acu-Link.com,2013-09-17 22:15:00,
2013-09-17 15:31:00,69.8,57.5,29.89,WSW,247,7.8,-999.0,65,-99.99,,,0.07,Acu-Link.com,2013-09-17 22:31:00,
2013-09-17 15:46:00,69.3,56.6,29.89,WNW,292,7.3,-999.0,64,-99.99,,,0.07,Acu-Link.com,2013-09-17 22:46:00,
2013-09-17 16:01:00,66.7,57.4,29.88,North,0,4.2,-999.0,72,-99.99,,,0.07,Acu-Link.com,2013-09-17 23:01:00,
2013-09-17 16:16:00,66.7,58.9,29.88,ESE,112,8.3,-999.0,76,-99.99,,,0.07,Acu-Link.com,2013-09-17 23:16:00,
2013-09-17 16:31:00,67.1,58.1,29.90,WNW,292,3.7,-999.0,73,-99.99,,,0.07,Acu-Link.com,2013-09-17 23:31:00,
2013-09-17 16:46:00,66.9,58.7,29.89,WSW,247,3.7,-999.0,75,-99.99,,,0.07,Acu-Link.com,2013-09-17 23:46:00,
2013-09-17 17:02:00,66.6,58.0,29.90,SW,225,5.3,-999.0,74,-99.99,,,0.07,Acu-Link.com,2013-09-18 00:02:00,
2013-09-17 17:17:00,66.2,57.3,29.90,SW,225,9.9,-999.0,73,-99.99,,,0.07,Acu-Link.com,2013-09-18 00:17:00,
2013-09-17 17:32:00,65.8,57.6,29.90,SW,225,4.7,-999.0,75,-99.99,,,0.07,Acu-Link.com,2013-09-18 00:32:00,
2013-09-17 17:47:00,66.9,58.0,29.91,West,270,2.2,-999.0,73,-99.99,,,0.07,Acu-Link.com,2013-09-18 00:47:00,
2013-09-17 18:02:00,66.9,58.3,29.90,West,270,5.8,-999.0,74,-99.99,,,0.07,Acu-Link.com,2013-09-18 01:02:00,
2013-09-17 18:17:00,66.2,58.0,29.90,WNW,292,3.2,-999.0,75,-99.99,,,0.07,Acu-Link.com,2013-09-18 01:17:00,
2013-09-17 18:33:00,64.4,57.7,29.91,WNW,292,5.3,-999.0,79,-99.99,,,0.07,Acu-Link.com,2013-09-18 01:33:00,
2013-09-17 18:48:00,63.5,57.2,29.93,West,270,2.7,-999.0,80,-99.99,,,0.07,Acu-Link.com,2013-09-18 01:48:00,
2013-09-17 19:03:00,63.1,57.5,29.92,North,0,0.0,-999.0,82,-99.99,,,0.07,Acu-Link.com,2013-09-18 02:03:00,
2013-09-17 19:18:00,62.2,57.0,29.92,WNW,292,1.1,-999.0,83,-99.99,,,0.07,Acu-Link.com,2013-09-18 02:18:00,
2013-09-17 19:34:00,60.4,56.5,29.94,SE,135,0.0,-999.0,87,-99.99,,,0.07,Acu-Link.com,2013-09-18 02:34:00,
2013-09-17 19:49:00,59.0,55.8,29.94,ESE,112,1.7,-999.0,89,-99.99,,,0.07,Acu-Link.com,2013-09-18 02:49:00,
2013-09-17 20:04:00,57.9,55.6,29.95,ESE,112,0.0,-999.0,92,-99.99,,,0.07,Acu-Link.com,2013-09-18 03:04:00,
2013-09-17 20:20:00,57.0,55.3,29.96,ESE,112,1.7,-999.0,94,-99.99,,,0.07,Acu-Link.com,2013-09-18 03:20:00,
2013-09-17 20:35:00,56.5,55.1,29.96,ESE,112,0.0,-999.0,95,-99.99,,,0.07,Acu-Link.com,2013-09-18 03:35:00,
2013-09-17 20:50:00,55.8,55.2,29.96,East,90,0.0,-999.0,98,-99.99,,,0.07,Acu-Link.com,2013-09-18 03:50:00,
2013-09-17 21:05:00,55.4,54.8,29.96,East,90,0.0,-999.0,98,-99.99,,,0.07,Acu-Link.com,2013-09-18 04:05:00,
2013-09-17 21:21:00,55.0,54.4,29.98,East,90,0.0,-999.0,98,-99.99,,,0.07,Acu-Link.com,2013-09-18 04:21:00,
2013-09-17 21:36:00,54.5,53.9,29.96,East,90,0.0,-999.0,98,-99.99,,,0.07,Acu-Link.com,2013-09-18 04:36:00,
2013-09-17 21:51:00,54.1,53.5,29.98,ESE,112,0.0,-999.0,98,-99.99,,,0.07,Acu-Link.com,2013-09-18 04:51:00,
2013-09-17 22:07:00,53.6,53.0,29.98,East,90,0.0,-999.0,98,-99.99,,,0.07,Acu-Link.com,2013-09-18 05:07:00,
2013-09-17 22:22:00,53.6,53.0,29.97,ESE,112,0.0,-999.0,98,-99.99,,,0.07,Acu-Link.com,2013-09-18 05:22:00,
2013-09-17 22:37:00,53.2,52.6,29.97,ESE,112,0.0,-999.0,98,-99.99,,,0.07,Acu-Link.com,2013-09-18 05:37:00,
2013-09-17 22:53:00,53.1,52.5,29.98,East,90,0.0,-999.0,98,-99.99,,,0.07,Acu-Link.com,2013-09-18 05:53:00,
2013-09-17 23:08:00,52.3,51.8,29.99,ESE,112,0.0,-999.0,98,-99.99,,,0.07,Acu-Link.com,2013-09-18 06:08:00,
2013-09-17 23:23:00,52.5,52.0,29.98,ESE,112,0.0,-999.0,98,-99.99,,,0.07,Acu-Link.com,2013-09-18 06:23:00,
2013-09-17 23:38:00,52.5,52.0,29.99,NNE,22,0.0,-999.0,98,-99.99,,,0.07,Acu-Link.com,2013-09-18 06:38:00,
2013-09-17 23:54:00,52.7,52.2,29.99,ESE,112,0.0,-999.0,98,-99.99,,,0.07,Acu-Link.com,2013-09-18 06:54:00,